[[{"header":{"parameterUnit":"m.s-1","parameterCategory":1,"la1":30.2991,"la2":30.254,"lo1":-89.0895,"lo2":-89.0444,"dy":0.0017,"dx":0.0017,"nx":28,"ny":28,"refTime":"2025-07-27T03:00:00:Z","depth":0,"parameterNumber":2,"parameterNumberName":"U-component_of_WINDS"},"data":[0,0,0,0,0,0,0,0,0,0,0,0,0,0,0,0,0,0,0,0,0,0,0,0,0,0,0,0,0,0,0,0,0,0,0,0,0,0,0,0,0,0,0,0,0,0,0,0,0,0,0,0,0,0,0,0,0,0,-1.1364,-1.1364,0,-1.1365,-1.1365,-1.1365,-1.1346,-1.1346,-1.1345,-1.1345,-1.1347,-1.1348,-1.1348,0,0,0,0,0,0,0,0,0,0,0,0,0,-1.1346,-1.1346,-1.1364,-1.1364,-1.1364,-1.1365,-1.1365,-1.1365,-1.1347,-1.1346,-1.1345,-1.1345,-1.1347,-1.1348,-1.1348,0,0,0,0,0,0,0,0,0,0,0,0,0,-1.1351,-1.1347,-1.1364,-1.1355,-1.1354,-1.1365,-1.1365,-1.1365,-1.1347,-1.1346,-1.1345,-1.1344,-1.1347,-1.1348,-1.1348,-1.1369,0,0,-1.1351,-1.1351,0,0,0,0,0,0,0,0,-1.1351,-1.1352,-1.1356,-1.1355,-1.1354,-1.1355,-1.136,-1.1367,-1.1347,-1.1349,-1.1345,-1.1344,-1.135,-1.1351,-1.1353,-1.1369,-1.1369,-1.1351,-1.1351,-1.1352,-1.1352,0,0,0,0,0,0,0,-1.1351,-1.1352,-1.1365,-1.1356,-1.1355,-1.1351,-1.1351,-1.1361,-1.1354,-1.1349,-1.1348,-1.1348,-1.135,-1.1352,-1.1353,-1.1369,-1.1351,-1.1352,-1.1352,-1.1352,-1.1403,-1.1404,0,0,0,0,0,0,-1.1351,-1.1352,-1.1364,-1.1365,-1.1351,-1.1352,-1.1352,-1.1356,-1.1354,-1.1353,-1.1349,-1.1347,-1.1351,-1.1352,-1.1353,-1.1377,-1.1352,-1.1353,-1.1353,-1.1402,-1.1403,-1.1404,0,0,0,0,0,0,-1.1351,-1.1353,-1.1364,-1.1358,-1.1359,-1.1353,-1.1357,-1.1356,-1.1358,-1.1354,-1.1353,-1.1352,-1.1351,-1.1352,-1.1365,-1.1377,-1.1353,-1.1354,-1.1401,-1.1402,-1.1404,-1.1426,0,0,0,0,0,0,-1.1351,-1.1353,-1.136,-1.1358,-1.1359,-1.1376,-1.1358,-1.1357,-1.136,-1.1358,-1.1357,-1.1356,-1.135,-1.1364,-1.1366,-1.1378,-1.1354,-1.14,-1.1402,-1.1403,-1.1424,-1.1427,-1.1431,0,0,0,0,0,-1.135,-1.1366,-1.1361,-1.1362,-1.1368,-1.1377,-1.1378,-1.137,-1.1361,-1.1368,-1.1366,-1.1356,-1.1375,-1.1366,-1.1368,-1.138,-1.1399,-1.1401,-1.1403,-1.1422,-1.1427,-1.143,0,0,0,0,0,0,-1.137,-1.1366,-1.1359,-1.1375,-1.1377,-1.1374,-1.1383,-1.1375,-1.138,-1.1378,-1.1369,-1.1369,-1.1384,-1.1383,-1.1372,-1.14,-1.1386,-1.1388,-1.1399,-1.1404,-1.1407,-1.1407,-1.1355,0,0,0,0,0,-1.1376,-1.1383,-1.138,-1.1394,-1.1395,-1.1389,-1.1393,-1.1387,-1.1388,-1.1388,-1.1387,-1.1388,-1.1395,-1.1399,-1.1405,-1.1424,-1.1423,-1.1433,-1.1436,-1.1439,-1.1441,-1.1452,-1.1456,-1.141,-1.141,-1.141,0,0,-1.1389,-1.1388,-1.1393,-1.1398,-1.1398,-1.1406,-1.139,-1.1399,-1.1405,-1.139,-1.1402,-1.1401,-1.1403,-1.1419,-1.1426,-1.1419,-1.1454,-1.1442,-1.1444,-1.1445,-1.1454,-1.1458,-1.1462,-1.1412,-1.1411,-1.1411,0,0,-1.1417,-1.1417,-1.1429,-1.143,-1.143,-1.1426,-1.1429,-1.1428,-1.1426,-1.1439,-1.1428,-1.1435,-1.1447,-1.1448,-1.145,-1.148,-1.1471,-1.1482,-1.1499,-1.1509,-1.1513,-1.1516,-1.1527,-1.153,-1.1484,-1.1484,-1.1484,0,-1.1433,-1.1444,-1.1436,-1.1446,-1.1449,-1.1436,-1.1448,-1.145,-1.1452,-1.1455,-1.1447,-1.1461,-1.1461,-1.1477,-1.1485,-1.1487,-1.149,-1.1482,-1.1513,-1.1516,-1.1519,-1.1529,-1.1533,-1.1485,-1.1485,-1.1485,-1.1485,0,-1.1464,-1.1472,-1.1482,-1.1485,-1.1489,-1.15,-1.1494,-1.1499,-1.1493,-1.149,-1.1503,-1.1503,-1.1508,-1.1512,-1.1506,-1.1528,-1.1524,-1.1515,-1.15,-1.1525,-1.1534,-1.1538,-1.1487,-1.1487,-1.1486,-1.1486,0,0,-1.1504,-1.1502,-1.1506,-1.1507,-1.1508,-1.1514,-1.1525,-1.153,-1.1535,-1.1537,-1.1546,-1.1556,-1.1548,-1.1551,-1.1545,-1.1554,-1.1578,-1.1544,-1.1544,-1.155,-1.1602,-1.1608,-1.1613,-1.1572,-1.1573,-1.1573,-1.1601,0,-1.1531,-1.1549,-1.1542,-1.1561,-1.1568,-1.1557,-1.1566,-1.1568,-1.1565,-1.1572,-1.1569,-1.1577,-1.1565,-1.1567,-1.1575,-1.1573,-1.1588,-1.1571,-1.1581,-1.1581,-1.158,-1.1617,-1.1624,-1.1651,-1.1605,-1.1606,-1.1606,0,-1.1564,-1.1568,-1.1588,-1.1587,-1.159,-1.1598,-1.1603,-1.1609,-1.1611,-1.1609,-1.1612,-1.1605,-1.1616,-1.1602,-1.1617,-1.1606,-1.161,-1.1609,-1.161,-1.161,-1.1595,-1.1619,-1.1659,-1.1663,-1.1612,-1.1611,-1.1611,0,-1.1592,-1.1602,-1.1615,-1.1616,-1.1616,-1.1622,-1.1622,-1.1623,-1.1627,-1.1631,-1.1633,-1.1639,-1.1642,-1.1647,-1.1641,-1.1632,-1.1658,-1.1643,-1.1656,-1.1656,-1.1662,-1.1662,-1.1703,-1.1665,-1.1665,-1.1665,-1.1665,0,-1.1622,-1.1635,-1.1627,-1.1635,-1.1648,-1.1641,-1.1655,-1.1654,-1.1655,-1.1662,-1.1653,-1.1661,-1.1653,-1.166,-1.1656,-1.167,-1.1671,-1.167,-1.1669,-1.1671,-1.1671,-1.1673,-1.1671,-1.1666,-1.1665,-1.1665,-1.1665,0,-1.1655,-1.165,-1.1663,-1.1662,-1.1662,-1.1672,-1.1671,-1.1678,-1.1676,-1.1686,-1.1688,-1.1684,-1.1692,-1.1687,-1.1695,-1.1692,-1.171,-1.1706,-1.1709,-1.1708,-1.1722,-1.172,-1.1766,-1.1772,-1.173,-1.173,-1.173,0,-1.1674,-1.1684,-1.1683,-1.1688,-1.1688,-1.1696,-1.17,-1.1693,-1.1697,-1.17,-1.1707,-1.1715,-1.172,-1.1733,-1.1731,-1.1738,-1.1734,-1.1749,-1.1735,-1.1737,-1.1734,-1.1733,-1.1734,-1.1752,-1.1753,-1.1753,-1.1753,0,-1.171,-1.1707,-1.1713,-1.1718,-1.1723,-1.1727,-1.173,-1.1734,-1.1727,-1.1733,-1.1741,-1.1745,-1.1753,-1.1761,-1.1766,-1.1767,-1.1759,-1.1758,-1.1762,-1.1764,-1.1765,-1.1764,-1.1717,-1.1757,-1.1757,-1.1756,-1.1756,-1.1756,-1.1737,-1.1745,-1.1745,-1.1752,-1.1754,-1.1757,-1.1764,-1.1762,-1.1769,-1.1775,-1.1771,-1.178,-1.1782,-1.1789,-1.179,-1.1798,-1.1791,-1.1796,-1.1798,-1.1799,-1.1801,-1.1764,-1.1799,-1.1799,-1.1799,-1.1798,-1.1798,0,-1.1772,-1.1772,-1.1778,-1.1783,-1.1788,-1.1781,-1.1784,-1.1789,-1.1797,-1.18,-1.1805,-1.1814,-1.1822,-1.182,-1.1827,-1.1833,-1.183,-1.1835,-1.1835,-1.1835,-1.1806,-1.1802,-1.1838,-1.1838,-1.1838,-1.1838,-1.1838,-1.1838,-1.1791,-1.1804,-1.1801,-1.1815,-1.1815,-1.1824,-1.1826,-1.1829,-1.1831,-1.1842,-1.1848,-1.1847,-1.1848,-1.1854,-1.1861,-1.186,-1.1863,-1.187,-1.1868,-1.1841,-1.1837,-1.1833,-1.183,-1.187,-1.187,-1.1896,-1.1896,-1.1897]},{"header":{"parameterUnit":"m.s-1","parameterCategory":1,"la1":30.2991,"la2":30.254,"lo1":-89.0895,"lo2":-89.0444,"dy":0.0017,"dx":0.0017,"nx":28,"ny":28,"refTime":"2025-07-27T03:00:00:Z","depth":0,"parameterNumber":3,"parameterNumberName":"V-component_of_WINDS"},"data":[0,0,0,0,0,0,0,0,0,0,0,0,0,0,0,0,0,0,0,0,0,0,0,0,0,0,0,0,0,0,0,0,0,0,0,0,0,0,0,0,0,0,0,0,0,0,0,0,0,0,0,0,0,0,0,0,0,0,3.3356,3.3355,0,3.3285,3.3284,3.3283,3.319,3.3188,3.3186,3.3185,3.3112,3.3112,3.3111,0,0,0,0,0,0,0,0,0,0,0,0,0,3.341,3.3409,3.3356,3.3355,3.3354,3.3285,3.3284,3.3283,3.319,3.3188,3.3186,3.3184,3.3112,3.3112,3.3111,0,0,0,0,0,0,0,0,0,0,0,0,0,3.3367,3.3409,3.3356,3.3299,3.3293,3.3285,3.3284,3.3283,3.319,3.3188,3.3186,3.3183,3.3112,3.3112,3.3111,3.3152,0,0,3.3109,3.3108,0,0,0,0,0,0,0,0,3.337,3.3365,3.3308,3.3303,3.3297,3.3244,3.3276,3.3239,3.3191,3.3229,3.3185,3.3182,3.3158,3.3153,3.3145,3.3149,3.3146,3.3108,3.3108,3.3108,3.3107,0,0,0,0,0,0,0,3.3373,3.3368,3.3328,3.3308,3.33,3.3277,3.3268,3.3269,3.3207,3.3226,3.3219,3.3212,3.3154,3.3146,3.3142,3.3145,3.3109,3.3108,3.3107,3.3107,3.3177,3.3179,0,0,0,0,0,0,3.3384,3.3371,3.333,3.3325,3.3328,3.3278,3.3268,3.3263,3.3207,3.3196,3.3214,3.3208,3.3148,3.3143,3.3139,3.3182,3.3108,3.3107,3.3107,3.3175,3.3178,3.318,0,0,0,0,0,0,3.3386,3.3382,3.3333,3.3346,3.3338,3.3279,3.3274,3.3263,3.3254,3.3198,3.3186,3.3217,3.3146,3.3141,3.3149,3.3179,3.3107,3.3106,3.3172,3.3176,3.3179,3.327,0,0,0,0,0,0,3.3388,3.3383,3.3398,3.3347,3.3338,3.3344,3.3276,3.3263,3.3253,3.3245,3.3198,3.3188,3.3144,3.3151,3.3149,3.3176,3.3105,3.3169,3.3174,3.3178,3.3264,3.3276,3.3287,0,0,0,0,0,3.339,3.3427,3.3399,3.3395,3.3356,3.3346,3.3341,3.329,3.3256,3.3271,3.3234,3.3189,3.3176,3.3153,3.3149,3.3177,3.3167,3.3172,3.3178,3.3259,3.3274,3.3287,0,0,0,0,0,0,3.3483,3.3419,3.3388,3.341,3.3384,3.3331,3.3347,3.3308,3.3291,3.3283,3.3221,3.3211,3.3227,3.3203,3.3178,3.3213,3.3165,3.317,3.3228,3.3242,3.3253,3.3257,3.3105,0,0,0,0,0,3.3506,3.3503,3.3448,3.3472,3.3461,3.3407,3.3401,3.3364,3.3335,3.3323,3.3288,3.3261,3.325,3.3245,3.3233,3.3261,3.3248,3.3278,3.329,3.3299,3.3303,3.3315,3.3327,3.3197,3.3197,3.3197,0,0,3.3553,3.3518,3.352,3.349,3.3466,3.3464,3.3398,3.34,3.3398,3.3324,3.3329,3.3302,3.3268,3.3287,3.3293,3.3267,3.3337,3.3306,3.3314,3.3313,3.3321,3.3334,3.3344,3.3201,3.32,3.32,0,0,3.3638,3.3612,3.3629,3.3606,3.357,3.3533,3.3538,3.349,3.3469,3.3474,3.3418,3.3414,3.3399,3.3376,3.3363,3.3439,3.3396,3.3437,3.3495,3.3506,3.3516,3.3525,3.355,3.356,3.3442,3.3442,3.3442,0,3.3701,3.3697,3.3642,3.3647,3.3634,3.3568,3.3583,3.3564,3.3526,3.3519,3.3491,3.3468,3.3441,3.3452,3.347,3.3462,3.3464,3.3441,3.3519,3.3528,3.3535,3.3558,3.3568,3.3447,3.3446,3.3446,3.3445,0,3.3775,3.3773,3.3791,3.3755,3.3745,3.3756,3.3702,3.3699,3.3663,3.3629,3.3634,3.3599,3.3577,3.3578,3.3543,3.3583,3.3568,3.3531,3.348,3.3553,3.3574,3.3582,3.3454,3.3452,3.3451,3.3449,0,0,3.3915,3.385,3.3857,3.384,3.3795,3.3792,3.3799,3.3778,3.3775,3.3752,3.3755,3.3743,3.3707,3.3692,3.3654,3.3665,3.3725,3.3625,3.3624,3.3643,3.3765,3.3792,3.3804,3.3697,3.3698,3.37,3.3767,0,3.399,3.3998,3.395,3.397,3.3967,3.3903,3.3909,3.3882,3.3851,3.3843,3.3808,3.38,3.3755,3.3745,3.3753,3.3716,3.3748,3.3711,3.3698,3.3698,3.3706,3.3815,3.3844,3.3909,3.3775,3.3777,3.3778,0,3.4079,3.4059,3.408,3.4033,3.403,3.4036,3.4012,3.4006,3.3973,3.395,3.3933,3.3889,3.3892,3.3845,3.3847,3.3822,3.3814,3.3796,3.3797,3.3792,3.3741,3.3811,3.3929,3.3939,3.379,3.3789,3.3788,0,3.4177,3.4156,3.4165,3.4152,3.4099,3.4104,3.4082,3.4048,3.4038,3.4017,3.4009,3.399,3.3978,3.3963,3.3915,3.3886,3.3921,3.3871,3.3901,3.3902,3.391,3.3909,3.4026,3.3908,3.3908,3.3908,3.3908,0,3.4264,3.4279,3.4208,3.4213,3.4227,3.4171,3.4186,3.4158,3.4128,3.4126,3.407,3.407,3.4007,3.3999,3.3961,3.3967,3.3963,3.3943,3.3932,3.3947,3.3949,3.3939,3.3933,3.391,3.391,3.3909,3.3909,0,3.4375,3.4329,3.4334,3.4283,3.427,3.4283,3.4238,3.4241,3.4206,3.4204,3.4201,3.4147,3.4134,3.4085,3.4061,3.4035,3.4053,3.4033,3.4064,3.4056,3.4088,3.4085,3.4201,3.4212,3.4089,3.409,3.4091,0,3.4433,3.4443,3.4393,3.4387,3.4368,3.436,3.435,3.4295,3.4286,3.425,3.4256,3.4239,3.4223,3.4206,3.4164,3.4144,3.4123,3.4165,3.412,3.4133,3.4121,3.412,3.412,3.4174,3.4176,3.4177,3.4178,0,3.4541,3.4517,3.4504,3.4483,3.4472,3.4453,3.443,3.4429,3.4368,3.4361,3.4347,3.4334,3.4309,3.4293,3.4266,3.4243,3.42,3.4193,3.4198,3.4212,3.4229,3.4218,3.4088,3.419,3.4189,3.4188,3.4188,3.4187,3.4625,3.463,3.4596,3.4583,3.456,3.454,3.4539,3.4505,3.4493,3.4468,3.4436,3.4427,3.4393,3.4353,3.4333,3.4324,3.43,3.4308,3.431,3.4312,3.4319,3.4232,3.4319,3.4318,3.4318,3.4318,3.4317,0,3.4728,3.4703,3.4692,3.4662,3.4651,3.4613,3.4586,3.4579,3.4571,3.4544,3.4529,3.4513,3.4496,3.4453,3.4432,3.4432,3.4412,3.4429,3.4427,3.4422,3.4342,3.4339,3.4445,3.4445,3.4445,3.4445,3.4445,3.4445,3.478,3.4786,3.4759,3.4752,3.4726,3.4716,3.4704,3.4685,3.4662,3.4647,3.4633,3.4605,3.457,3.4546,3.4529,3.4516,3.451,3.4533,3.4514,3.444,3.4428,3.4416,3.4412,3.4532,3.4533,3.4594,3.4594,3.4595]}]]